| time (UTC) | temp F | wind direction | speed MPH | gust MPH | rain 1hr in | rain 24hr in | rain mn in | humidity % | barometer mb |
| 20260508144218 | 50 | 225 | 13.0 | 27.0 | 0.00 | 0.00 | 0.00 | 61 | 1005.7 |
| 20260508143704 | 50 | 270 | 12.0 | 27.0 | 0.00 | 0.00 | 0.00 | 61 | 1005.6 |
| 20260508143205 | 50 | 225 | 16.0 | 30.0 | 0.00 | 0.00 | 0.00 | 61 | 1005.6 |
| 20260508142642 | 50 | 270 | 14.0 | 30.0 | 0.00 | 0.00 | 0.00 | 61 | 1005.6 |
| 20260508141644 | 50 | 225 | 16.0 | 29.0 | 0.00 | 0.00 | 0.00 | 60 | 1005.6 |
| 20260508135039 | 51 | 225 | 19.0 | 29.0 | 0.00 | 0.00 | 0.00 | 62 | 1005.8 |
| 20260508134540 | 51 | 225 | 10.0 | 20.0 | 0.00 | 0.00 | 0.00 | 62 | 1005.9 |
| 20260508134025 | 50 | 225 | 12.0 | 32.0 | 0.00 | 0.00 | 0.00 | 63 | 1005.9 |
| 20260508132959 | 49 | 270 | 13.0 | 27.0 | 0.00 | 0.00 | 0.00 | 63 | 1005.6 |
| 20260508132445 | 49 | 225 | 15.0 | 30.0 | 0.00 | 0.00 | 0.00 | 64 | 1005.6 |
| 20260508131934 | 49 | 225 | 18.0 | 30.0 | 0.00 | 0.00 | 0.00 | 64 | 1005.8 |
| 20260508131427 | 49 | 225 | 15.0 | 30.0 | 0.00 | 0.00 | 0.00 | 65 | 1005.4 |
| 20260508130910 | 49 | 270 | 16.0 | 30.0 | 0.00 | 0.00 | 0.00 | 64 | 1005.3 |
| 20260508130405 | 49 | 225 | 17.0 | 30.0 | 0.00 | 0.00 | 0.00 | 65 | 1005.4 |
| 20260508125856 | 49 | 225 | 18.0 | 29.0 | 0.00 | 0.00 | 0.00 | 65 | 1005.4 |
| 20260508125340 | 49 | 225 | 13.0 | 28.0 | 0.00 | 0.00 | 0.00 | 65 | 1005.3 |
| 20260508124841 | 48 | 225 | 16.0 | 28.0 | 0.00 | 0.00 | 0.00 | 65 | 1005.3 |
| 20260508124328 | 48 | 225 | 15.0 | 28.0 | 0.00 | 0.00 | 0.00 | 66 | 1005.4 |
| 20260508123809 | 48 | 225 | 11.0 | 28.0 | 0.00 | 0.00 | 0.00 | 67 | 1005.6 |
| 20260508122803 | 48 | 225 | 17.0 | 29.0 | 0.00 | 0.00 | 0.00 | 67 | 1005.4 |
| 20260508122243 | 48 | 225 | 11.0 | 27.0 | 0.00 | 0.00 | 0.00 | 68 | 1005.2 |
| 20260508121729 | 48 | 270 | 9.0 | 30.0 | 0.00 | 0.00 | 0.00 | 68 | 1005.4 |
| 20260508121229 | 48 | 225 | 11.0 | 30.0 | 0.00 | 0.00 | 0.00 | 68 | 1005.2 |
| 20260508120708 | 48 | 225 | 10.0 | 29.0 | 0.00 | 0.00 | 0.00 | 68 | 1005.5 |
| 20260508120207 | 48 | 270 | 9.0 | 21.0 | 0.00 | 0.00 | 0.00 | 68 | 1004.9 |
| 20260508115703 | 47 | 270 | 11.0 | 32.0 | 0.00 | 0.00 | 0.00 | 69 | 1005.1 |
| 20260508115136 | 47 | 270 | 13.0 | 32.0 | 0.00 | 0.00 | 0.00 | 69 | 1005.1 |
| 20260508114135 | 47 | 225 | 8.0 | 24.0 | 0.00 | 0.00 | 0.00 | 69 | 1005.1 |
| 20260508113610 | 47 | 225 | 8.0 | 27.0 | 0.00 | 0.00 | 0.00 | 68 | 1004.9 |
| 20260508113058 | 47 | 270 | 12.0 | 27.0 | 0.00 | 0.00 | 0.00 | 68 | 1004.8 |
| 20260508112036 | 47 | 270 | 10.0 | 27.0 | 0.00 | 0.00 | 0.00 | 68 | 1004.9 |
| 20260508111020 | 47 | 225 | 17.0 | 26.0 | 0.00 | 0.00 | 0.00 | 68 | 1004.7 |
| 20260508110505 | 47 | 225 | 10.0 | 26.0 | 0.00 | 0.00 | 0.00 | 69 | 1004.4 |
| 20260508105457 | 46 | 270 | 8.0 | 21.0 | 0.00 | 0.00 | 0.00 | 71 | 1004.6 |
| 20260508104939 | 47 | 225 | 11.0 | 21.0 | 0.00 | 0.00 | 0.00 | 72 | 1004.4 |
| 20260508104441 | 47 | 225 | 10.0 | 22.0 | 0.00 | 0.00 | 0.00 | 71 | 1004.2 |
| 20260508103926 | 47 | 270 | 8.0 | 23.0 | 0.00 | 0.00 | 0.00 | 66 | 1004.2 |
| 20260508103411 | 47 | 225 | 11.0 | 23.0 | 0.00 | 0.00 | 0.00 | 66 | 1004.0 |
| 20260508102357 | 47 | 270 | 11.0 | 23.0 | 0.00 | 0.00 | 0.00 | 64 | 1004.1 |
| 20260508101836 | 47 | 270 | 8.0 | 22.0 | 0.00 | 0.00 | 0.00 | 64 | 1003.9 |
| 20260508101326 | 47 | 270 | 9.0 | 23.0 | 0.00 | 0.00 | 0.00 | 64 | 1003.8 |
| 20260508100834 | 47 | 225 | 11.0 | 23.0 | 0.00 | 0.00 | 0.00 | 64 | 1003.7 |
| 20260508100304 | 47 | 225 | 11.0 | 23.0 | 0.00 | 0.00 | 0.00 | 64 | 1003.8 |
| 20260508095805 | 47 | 270 | 8.0 | 24.0 | 0.00 | 0.00 | 0.00 | 64 | 1003.7 |
| 20260508094738 | 47 | 270 | 10.0 | 23.0 | 0.00 | 0.00 | 0.00 | 64 | 1003.6 |
| 20260508094224 | 47 | 270 | 11.0 | 26.0 | 0.00 | 0.00 | 0.00 | 65 | 1003.4 |
| 20260508093727 | 47 | 225 | 14.0 | 26.0 | 0.00 | 0.00 | 0.00 | 64 | 1003.5 |
| 20260508093203 | 47 | 270 | 12.0 | 20.0 | 0.00 | 0.00 | 0.00 | 65 | 1003.6 |
| 20260508092701 | 47 | 225 | 9.0 | 23.0 | 0.00 | 0.00 | 0.00 | 64 | 1003.4 |
| 20260508092152 | 47 | 270 | 11.0 | 23.0 | 0.00 | 0.00 | 0.00 | 64 | 1003.2 |
| 20260508091640 | 47 | 225 | 8.0 | 20.0 | 0.00 | 0.00 | 0.00 | 64 | 1003.3 |
| 20260508091135 | 47 | 225 | 13.0 | 23.0 | 0.00 | 0.00 | 0.00 | 63 | 1003.2 |
| 20260508090122 | 48 | 270 | 9.0 | 25.0 | 0.00 | 0.00 | 0.00 | 63 | 1003.2 |
| 20260508085553 | 48 | 225 | 15.0 | 25.0 | 0.00 | 0.00 | 0.00 | 63 | 1003.1 |
| 20260508085055 | 48 | 225 | 11.0 | 22.0 | 0.00 | 0.00 | 0.00 | 63 | 1003.1 |
| 20260508084027 | 48 | 270 | 11.0 | 20.0 | 0.00 | 0.00 | 0.00 | 63 | 1003.0 |
| 20260508083527 | 48 | 225 | 13.0 | 20.0 | 0.00 | 0.00 | 0.00 | 63 | 1002.9 |
| 20260508083001 | 48 | 270 | 9.0 | 21.0 | 0.00 | 0.00 | 0.00 | 63 | 1003.0 |
| 20260508082459 | 48 | 270 | 7.0 | 21.0 | 0.00 | 0.00 | 0.00 | 63 | 1003.0 |
| 20260508081950 | 48 | 270 | 12.0 | 20.0 | 0.00 | 0.00 | 0.00 | 63 | 1003.1 |
| 20260508081431 | 48 | 270 | 7.0 | 21.0 | 0.00 | 0.00 | 0.00 | 63 | 1003.1 |
| 20260508080932 | 49 | 225 | 11.0 | 22.0 | 0.00 | 0.00 | 0.00 | 63 | 1002.9 |
| 20260508080422 | 49 | 270 | 10.0 | 22.0 | 0.00 | 0.00 | 0.00 | 63 | 1003.0 |
| 20260508075909 | 49 | 225 | 12.0 | 21.0 | 0.00 | 0.00 | 0.00 | 64 | 1002.9 |
| 20260508075356 | 49 | 225 | 8.0 | 21.0 | 0.00 | 0.00 | 0.00 | 64 | 1002.9 |
| 20260508074849 | 49 | 270 | 9.0 | 23.0 | 0.00 | 0.00 | 0.00 | 66 | 1002.9 |
| 20260508074338 | 49 | 225 | 8.0 | 23.0 | 0.00 | 0.00 | 0.00 | 66 | 1002.8 |
| 20260508073830 | 49 | 270 | 8.0 | 21.0 | 0.00 | 0.00 | 0.00 | 67 | 1002.9 |
| 20260508073319 | 49 | 270 | 9.0 | 21.0 | 0.00 | 0.00 | 0.00 | 68 | 1002.8 |
| 20260508072801 | 49 | 270 | 12.0 | 21.0 | 0.00 | 0.00 | 0.00 | 69 | 1002.7 |
| 20260508072252 | 49 | 270 | 10.0 | 21.0 | 0.00 | 0.00 | 0.00 | 71 | 1002.8 |
| 20260508071755 | 49 | 270 | 9.0 | 21.0 | 0.00 | 0.00 | 0.00 | 72 | 1002.6 |
| 20260508070727 | 48 | 270 | 10.0 | 20.0 | 0.00 | 0.01 | 0.00 | 76 | 1002.8 |
| 20260508065703 | 48 | 225 | 10.0 | 21.0 | 0.00 | 0.01 | 0.00 | 78 | 1002.8 |
| 20260508065156 | 48 | 270 | 9.0 | 19.0 | 0.00 | 0.01 | 0.00 | 78 | 1002.9 |
| 20260508064646 | 49 | 270 | 11.0 | 19.0 | 0.00 | 0.01 | 0.00 | 78 | 1002.8 |
| 20260508064128 | 49 | 270 | 9.0 | 15.0 | 0.00 | 0.01 | 0.00 | 78 | 1003.0 |
| 20260508063622 | 49 | 270 | 11.0 | 15.0 | 0.00 | 0.01 | 0.00 | 77 | 1002.8 |
| 20260508063113 | 49 | 270 | 6.0 | 15.0 | 0.00 | 0.01 | 0.00 | 76 | 1003.0 |
| 20260508062605 | 49 | 270 | 8.0 | 16.0 | 0.00 | 0.01 | 0.00 | 75 | 1003.2 |
| 20260508062051 | 49 | 270 | 4.0 | 16.0 | 0.00 | 0.01 | 0.00 | 75 | 1003.2 |
| 20260508061548 | 49 | 270 | 5.0 | 14.0 | 0.00 | 0.01 | 0.00 | 74 | 1003.2 |
| 20260508060519 | 49 | 270 | 8.0 | 16.0 | 0.00 | 0.01 | 0.00 | 73 | 1003.5 |
| 20260508060019 | 49 | 270 | 7.0 | 16.0 | 0.00 | 0.01 | 0.00 | 73 | 1003.4 |
| 20260508055458 | 49 | 270 | 8.0 | 16.0 | 0.00 | 0.01 | 0.00 | 72 | 1003.4 |
| 20260508054949 | 49 | 225 | 5.0 | 15.0 | 0.00 | 0.01 | 0.00 | 73 | 1003.6 |
| 20260508054445 | 49 | 270 | 6.0 | 17.0 | 0.00 | 0.01 | 0.00 | 73 | 1003.7 |
| 20260508053937 | 49 | 270 | 7.0 | 19.0 | 0.00 | 0.01 | 0.00 | 72 | 1003.5 |
| 20260508053430 | 50 | 270 | 7.0 | 29.0 | 0.00 | 0.02 | 0.00 | 71 | 1003.5 |
| 20260508052916 | 50 | 225 | 8.0 | 29.0 | 0.00 | 0.02 | 0.00 | 71 | 1003.7 |
| 20260508052403 | 50 | 270 | 11.0 | 21.0 | 0.00 | 0.02 | 0.00 | 72 | 1003.6 |
| 20260508051849 | 50 | 270 | 14.0 | 21.0 | 0.00 | 0.02 | 0.00 | 73 | 1003.6 |
| 20260508051345 | 50 | 270 | 11.0 | 21.0 | 0.00 | 0.04 | 0.00 | 73 | 1003.6 |
| 20260508050836 | 50 | 270 | 13.0 | 23.0 | 0.00 | 0.05 | 0.00 | 72 | 1003.5 |
| 20260508050325 | 50 | 225 | 15.0 | 23.0 | 0.00 | 0.07 | 0.00 | 73 | 1003.8 |
| 20260508045816 | 50 | 225 | 15.0 | 23.0 | 0.00 | 0.07 | 0.00 | 73 | 1003.6 |
| 20260508045256 | 50 | 270 | 12.0 | 21.0 | 0.00 | 0.08 | 0.00 | 74 | 1003.5 |
| 20260508044750 | 50 | 225 | 13.0 | 21.0 | 0.00 | 0.08 | 0.00 | 74 | 1003.4 |
| 20260508044246 | 50 | 225 | 11.0 | 20.0 | 0.00 | 0.09 | 0.00 | 74 | 1003.5 |
| 20260508043726 | 50 | 225 | 15.0 | 20.0 | 0.00 | 0.12 | 0.00 | 74 | 1003.1 |
| 20260508043219 | 50 | 270 | 9.0 | 17.0 | 0.00 | 0.14 | 0.00 | 75 | 1003.1 |
| 20260508041147 | 50 | 225 | 11.0 | 21.0 | 0.00 | 0.28 | 0.00 | 75 | 1003.3 |
| 20260508035613 | 50 | 225 | 10.0 | 20.0 | 0.00 | 0.65 | 0.00 | 77 | 1003.3 |
| 20260508035102 | 50 | 270 | 12.0 | 26.0 | 0.00 | 0.76 | 0.00 | 77 | 1003.3 |
| 20260508034555 | 50 | 225 | 15.0 | 26.0 | 0.00 | 1.12 | 0.00 | 77 | 1003.4 |
| 20260508033531 | 50 | 225 | 14.0 | 29.0 | 0.00 | 1.37 | 0.00 | 78 | 1003.3 |
| 20260508033018 | 50 | 225 | 15.0 | 27.0 | 0.00 | 1.37 | 0.00 | 78 | 1003.5 |
| 20260508032511 | 50 | 225 | 12.0 | 27.0 | 0.00 | 1.37 | 0.00 | 78 | 1003.4 |
| 20260508032004 | 50 | 225 | 15.0 | 23.0 | 0.00 | 1.37 | 0.00 | 79 | 1003.5 |
| 20260508031447 | 50 | 225 | 11.0 | 27.0 | 0.00 | 1.37 | 0.00 | 80 | 1003.5 |
| 20260508030942 | 49 | 180 | 8.0 | 29.0 | 0.00 | 1.37 | 0.00 | 81 | 1003.4 |
| 20260508030434 | 49 | 180 | 17.0 | 30.0 | 0.00 | 1.37 | 0.00 | 82 | 1003.3 |
| 20260508025916 | 49 | 225 | 15.0 | 35.0 | 0.00 | 1.37 | 1.37 | 84 | 1003.5 |
| 20260508025403 | 49 | 225 | 12.0 | 35.0 | 0.00 | 1.37 | 1.37 | 86 | 1003.6 |
| 20260508024852 | 49 | 180 | 19.0 | 38.0 | 0.00 | 1.37 | 1.37 | 88 | 1003.4 |
| 20260508024342 | 49 | 225 | 16.0 | 38.0 | 0.00 | 1.37 | 1.37 | 89 | 1003.5 |
| 20260508023901 | 49 | 225 | 19.0 | 34.0 | 0.00 | 1.37 | 1.37 | 88 | 1003.5 |
| 20260508023324 | 50 | 225 | 16.0 | 34.0 | 0.00 | 1.37 | 1.37 | 86 | 1003.3 |
| 20260508022815 | 50 | 225 | 17.0 | 34.0 | 0.00 | 1.37 | 1.37 | 84 | 1003.1 |
| 20260508022310 | 50 | 225 | 13.0 | 32.0 | 0.00 | 1.37 | 1.37 | 85 | 1003.0 |
| 20260508020742 | 49 | 225 | 14.0 | 28.0 | 0.00 | 1.37 | 1.37 | 87 | 1002.9 |
| 20260508015712 | 50 | 225 | 21.0 | 30.0 | 0.00 | 1.37 | 1.37 | 88 | 1002.8 |
| 20260508015209 | 50 | 270 | 17.0 | 30.0 | 0.00 | 1.37 | 1.37 | 88 | 1002.8 |
| 20260508014650 | 50 | 225 | 14.0 | 30.0 | 0.00 | 1.37 | 1.37 | 88 | 1002.8 |
| 20260508014148 | 50 | 225 | 13.0 | 30.0 | 0.00 | 1.37 | 1.37 | 88 | 1002.8 |
| 20260508013632 | 50 | 225 | 17.0 | 29.0 | 0.00 | 1.37 | 1.37 | 88 | 1002.7 |
| 20260508012615 | 50 | 180 | 17.0 | 30.0 | 0.00 | 1.37 | 1.37 | 88 | 1002.8 |
| 20260508011608 | 50 | 270 | 19.0 | 30.0 | 0.00 | 1.37 | 1.37 | 88 | 1002.8 |
| 20260508010528 | 50 | 225 | 20.0 | 33.0 | 0.00 | 1.37 | 1.37 | 90 | 1002.9 |
| 20260508010034 | 50 | 225 | 15.0 | 28.0 | 0.00 | 1.37 | 1.37 | 93 | 1002.9 |
| 20260508005507 | 51 | 225 | 18.0 | 28.0 | 0.00 | 1.37 | 1.37 | 93 | 1003.0 |
| 20260508005003 | 51 | 225 | 15.0 | 26.0 | 0.00 | 1.37 | 1.37 | 93 | 1002.9 |
| 20260508003429 | 51 | 270 | 11.0 | 29.0 | 0.00 | 1.37 | 1.37 | 89 | 1003.3 |
| 20260508002926 | 52 | 225 | 11.0 | 29.0 | 0.00 | 1.37 | 1.37 | 89 | 1003.6 |
| 20260508002412 | 52 | 270 | 13.0 | 27.0 | 0.00 | 1.37 | 1.37 | 88 | 1003.5 |
| 20260508001903 | 52 | 270 | 11.0 | 27.0 | 0.00 | 1.37 | 1.37 | 88 | 1003.4 |
| 20260508001350 | 52 | 270 | 14.0 | 21.0 | 0.00 | 1.37 | 1.37 | 88 | 1003.6 |
| 20260508000855 | 53 | 225 | 10.0 | 21.0 | 0.00 | 1.37 | 1.37 | 88 | 1003.7 |
| 20260508000328 | 53 | 225 | 8.0 | 21.0 | 0.00 | 1.37 | 1.37 | 87 | 1003.7 |
| 20260507235822 | 53 | 270 | 11.0 | 28.0 | 0.00 | 1.37 | 1.37 | 85 | 1003.8 |
| 20260507235320 | 53 | 225 | 9.0 | 30.0 | 0.00 | 1.37 | 1.37 | 85 | 1003.7 |
| 20260507234803 | 53 | 225 | 15.0 | 30.0 | 0.00 | 1.37 | 1.37 | 85 | 1003.7 |
| 20260507234256 | 53 | 225 | 17.0 | 27.0 | 0.00 | 1.37 | 1.37 | 84 | 1003.5 |
| 20260507233239 | 53 | 270 | 17.0 | 23.0 | 0.00 | 1.37 | 1.37 | 83 | 1003.6 |
| 20260507232213 | 53 | 270 | 13.0 | 21.0 | 0.00 | 1.37 | 1.37 | 85 | 1003.7 |
| 20260507231145 | 53 | 225 | 15.0 | 27.0 | 0.00 | 1.37 | 1.37 | 85 | 1003.6 |
| 20260507230650 | 53 | 225 | 13.0 | 27.0 | 0.00 | 1.37 | 1.37 | 85 | 1003.6 |
| 20260507230125 | 53 | 270 | 10.0 | 23.0 | 0.00 | 1.37 | 1.37 | 84 | 1003.8 |
| 20260507225623 | 53 | 225 | 11.0 | 22.0 | 0.00 | 1.37 | 1.37 | 84 | 1003.8 |
| 20260507225111 | 53 | 225 | 12.0 | 23.0 | 0.00 | 1.37 | 1.37 | 85 | 1003.7 |
| 20260507224047 | 53 | 270 | 9.0 | 25.0 | 0.00 | 1.37 | 1.37 | 85 | 1003.6 |
| 20260507223043 | 54 | 225 | 5.0 | 20.0 | 0.00 | 1.37 | 1.37 | 85 | 1003.2 |
| 20260507221501 | 53 | 225 | 13.0 | 21.0 | 0.00 | 1.37 | 1.37 | 86 | 1003.1 |
| 20260507220944 | 53 | 225 | 7.0 | 20.0 | 0.00 | 1.37 | 1.37 | 90 | 1002.9 |
| 20260507220453 | 53 | 225 | 8.0 | 22.0 | 0.00 | 1.37 | 1.37 | 91 | 1002.5 |
| 20260507215937 | 53 | 270 | 11.0 | 24.0 | 0.00 | 1.37 | 1.37 | 92 | 1002.4 |
| 20260507215420 | 54 | 225 | 12.0 | 24.0 | 0.00 | 1.37 | 1.37 | 91 | 1002.6 |
| 20260507214359 | 55 | 225 | 15.0 | 23.0 | 0.00 | 1.37 | 1.37 | 83 | 1002.2 |
| 20260507213850 | 55 | 270 | 9.0 | 23.0 | 0.00 | 1.37 | 1.37 | 82 | 1002.5 |
| 20260507213336 | 55 | 270 | 8.0 | 23.0 | 0.00 | 1.37 | 1.37 | 83 | 1002.5 |
| 20260507212837 | 55 | 225 | 8.0 | 21.0 | 0.00 | 1.37 | 1.37 | 83 | 1002.5 |
| 20260507212325 | 55 | 270 | 10.0 | 21.0 | 0.00 | 1.37 | 1.37 | 84 | 1002.3 |
| 20260507211801 | 55 | 270 | 10.0 | 22.0 | 0.00 | 1.37 | 1.37 | 84 | 1002.4 |
| 20260507211309 | 56 | 225 | 14.0 | 23.0 | 0.00 | 1.37 | 1.37 | 82 | 1002.4 |
| 20260507210756 | 56 | 270 | 14.0 | 23.0 | 0.00 | 1.37 | 1.37 | 81 | 1002.6 |
| 20260507210233 | 56 | 225 | 13.0 | 21.0 | 0.00 | 1.37 | 1.37 | 80 | 1002.6 |
| 20260507205741 | 56 | 270 | 5.0 | 22.0 | 0.00 | 1.37 | 1.37 | 81 | 1002.3 |
| 20260507205222 | 56 | 225 | 11.0 | 22.0 | 0.00 | 1.37 | 1.37 | 80 | 1002.5 |
| 20260507204701 | 56 | 225 | 8.0 | 18.0 | 0.00 | 1.37 | 1.37 | 80 | 1002.3 |
| 20260507203646 | 56 | 180 | 12.0 | 19.0 | 0.00 | 1.37 | 1.37 | 80 | 1002.3 |
| 20260507203135 | 56 | 270 | 9.0 | 18.0 | 0.00 | 1.37 | 1.37 | 80 | 1002.2 |
| 20260507202112 | 56 | 270 | 8.0 | 22.0 | 0.00 | 1.37 | 1.37 | 80 | 1002.4 |
| 20260507201602 | 56 | 225 | 11.0 | 23.0 | 0.00 | 1.37 | 1.37 | 79 | 1001.9 |
| 20260507201058 | 56 | 270 | 15.0 | 23.0 | 0.00 | 1.37 | 1.37 | 78 | 1002.0 |
| 20260507200552 | 56 | 225 | 14.0 | 23.0 | 0.00 | 1.37 | 1.37 | 79 | 1001.8 |
| 20260507200030 | 56 | 225 | 11.0 | 23.0 | 0.00 | 1.37 | 1.37 | 79 | 1001.5 |
| 20260507195529 | 56 | 225 | 13.0 | 22.0 | 0.00 | 1.37 | 1.37 | 79 | 1001.7 |
| 20260507195019 | 57 | 225 | 13.0 | 23.0 | 0.00 | 1.37 | 1.37 | 78 | 1001.4 |
| 20260507194003 | 57 | 225 | 11.0 | 24.0 | 0.00 | 1.37 | 1.37 | 77 | 1000.9 |
| 20260507193440 | 57 | 225 | 9.0 | 24.0 | 0.00 | 1.37 | 1.37 | 75 | 1000.9 |
| 20260507192436 | 57 | 225 | 9.0 | 21.0 | 0.00 | 1.37 | 1.37 | 73 | 1000.2 |
| 20260507191402 | 58 | 180 | 10.0 | 21.0 | 0.00 | 1.37 | 1.37 | 73 | 1000.3 |
| 20260507190344 | 58 | 225 | 12.0 | 25.0 | 0.00 | 1.37 | 1.37 | 72 | 1001.2 |
| 20260507185337 | 58 | 225 | 11.0 | 22.0 | 0.00 | 1.37 | 1.37 | 71 | 1001.3 |
| 20260507184822 | 59 | 225 | 11.0 | 21.0 | 0.00 | 1.37 | 1.37 | 71 | 1001.7 |
| 20260507184259 | 59 | 225 | 9.0 | 21.0 | 0.00 | 1.37 | 1.37 | 70 | 1002.3 |
| 20260507183239 | 59 | 270 | 8.0 | 18.0 | 0.00 | 1.37 | 1.37 | 69 | 1002.9 |
| 20260507182738 | 59 | 225 | 11.0 | 21.0 | 0.00 | 1.37 | 1.37 | 68 | 1002.7 |
| 20260507182229 | 59 | 270 | 14.0 | 22.0 | 0.00 | 1.37 | 1.37 | 68 | 1002.7 |
| 20260507181704 | 59 | 225 | 11.0 | 23.0 | 0.00 | 1.37 | 1.37 | 68 | 1002.5 |
| 20260507181155 | 59 | 270 | 9.0 | 23.0 | 0.00 | 1.37 | 1.37 | 70 | 1002.6 |
| 20260507180707 | 59 | 270 | 8.0 | 19.0 | 0.00 | 1.37 | 1.37 | 68 | 1002.9 |
| 20260507180142 | 59 | 270 | 11.0 | 18.0 | 0.00 | 1.37 | 1.37 | 68 | 1003.4 |
| 20260507175633 | 58 | 270 | 8.0 | 17.0 | 0.00 | 1.37 | 1.37 | 70 | 1003.7 |
| 20260507175118 | 58 | 270 | 8.0 | 15.0 | 0.00 | 1.37 | 1.37 | 71 | 1003.9 |
| 20260507174625 | 58 | 270 | 7.0 | 12.0 | 0.00 | 1.37 | 1.37 | 72 | 1003.9 |
| 20260507174057 | 58 | 270 | 7.0 | 13.0 | 0.00 | 1.37 | 1.37 | 72 | 1004.1 |
| 20260507173550 | 58 | 270 | 5.0 | 14.0 | 0.00 | 1.37 | 1.37 | 72 | 1003.9 |
| 20260507173047 | 58 | 270 | 4.0 | 15.0 | 0.00 | 1.37 | 1.37 | 70 | 1003.8 |
| 20260507172528 | 58 | 270 | 6.0 | 15.0 | 0.00 | 1.37 | 1.37 | 71 | 1003.8 |
| 20260507172031 | 58 | 270 | 7.0 | 19.0 | 0.00 | 1.37 | 1.37 | 72 | 1003.6 |
| 20260507171524 | 58 | 225 | 6.0 | 19.0 | 0.00 | 1.37 | 1.37 | 72 | 1003.3 |
| 20260507170957 | 58 | 270 | 11.0 | 19.0 | 0.00 | 1.37 | 1.37 | 71 | 1002.8 |
| 20260507165942 | 58 | 225 | 5.0 | 15.0 | 0.00 | 1.37 | 1.37 | 73 | 1002.0 |
| 20260507165427 | 58 | 270 | 6.0 | 17.0 | 0.00 | 1.37 | 1.37 | 74 | 1002.2 |
| 20260507164918 | 58 | 270 | 8.0 | 17.0 | 0.00 | 1.37 | 1.37 | 74 | 1002.1 |
| 20260507164417 | 58 | 270 | 9.0 | 17.0 | 0.00 | 1.37 | 1.37 | 74 | 1002.5 |
| 20260507163347 | 57 | 270 | 11.0 | 16.0 | 0.00 | 1.37 | 1.37 | 73 | 1001.7 |
| 20260507160803 | 58 | 225 | 8.0 | 18.0 | 0.00 | 1.37 | 1.37 | 75 | 1002.9 |
| 20260507154719 | 58 | 270 | 8.0 | 24.0 | 0.00 | 1.37 | 1.37 | 75 | 1003.4 |
| 20260507154210 | 58 | 225 | 13.0 | 22.0 | 0.00 | 1.37 | 1.37 | 75 | 1002.9 |
| 20260507153707 | 58 | 270 | 13.0 | 23.0 | 0.00 | 1.37 | 1.37 | 74 | 1002.9 |
| 20260507153145 | 58 | 225 | 11.0 | 23.0 | 0.00 | 1.37 | 1.37 | 74 | 1002.9 |
| 20260507152650 | 58 | 225 | 6.0 | 25.0 | 0.00 | 1.37 | 1.37 | 76 | 1002.6 |
| 20260507152126 | 58 | 270 | 10.0 | 25.0 | 0.00 | 1.37 | 1.37 | 76 | 1002.7 |
| 20260507151614 | 58 | 225 | 18.0 | 25.0 | 0.00 | 1.37 | 1.37 | 75 | 1002.7 |
| 20260507151121 | 58 | 225 | 14.0 | 23.0 | 0.00 | 1.37 | 1.37 | 76 | 1002.3 |
| 20260507150552 | 58 | 225 | 8.0 | 23.0 | 0.00 | 1.37 | 1.37 | 76 | 1002.5 |